Tracking 35331 objects as of 16-Sep-2026
HD Live streaming from Space Station
objects crossing your sky now

COSMOS 1482 DEB


COSMOS 1482 DEB is no longer on orbit


NORAD ID: 14230
Int'l Code: 1983-071H
Launch date: July 13, 1983
Source: Commonwealth of Independent States (former USSR) (CIS)
Launch site: TYURATAM MISSILE AND SPACE COMPLEX (TTMTR)
Decay date: 1984-06-25

Note: This is SATELLITE DEBRIS
Your satellite tracking list
Your tracking list is empty




NASA's NSSDC Master Catalog

Two Line Element Set (TLE):
1 14230U 83071  H 84177.42481903  .14715630 +17784-4 +13291-3 0  9994
2 14230 069.9490 206.3693 0012296 272.6097 087.9508 16.51020996054905
Source of the keplerian elements: AFSPC